Hourly Data Report for December 30, 2002

TORONTO CITY
ONTARIO

43°40'00.000" N
79°24'00.000" W
112.50 m
6158355
71508
XTO

Download Data

Hourly Data (December 2002)
Hourly Data Report for December 30, 2002
TIME
LST
Temp Definition
°C
Dew Point Definition
°C
Rel Hum Definition
%
Precip. Amount Definition
mm

Wind Dir Definition
10's deg

Wind Spd Definition
km/h
Visibility Definition
km
Stn Press Definition
kPa
Hmdx Definition


Wind Chill Definition


Weather Definition


00:00 0.8 -3.8 71   LegendMM LegendMM LegendMM 100.97     LegendNANA
01:00 0.8 -3.2 75   LegendMM LegendMM LegendMM 100.97     LegendNANA
02:00 0.9 -2.9 76   LegendMM LegendMM LegendMM 100.97     LegendNANA
03:00 1.2 -2.5 76   LegendMM LegendMM LegendMM 100.95     LegendNANA
04:00 2.0 -2.6 72   LegendMM LegendMM LegendMM 100.92     LegendNANA
05:00 1.8 -2.6 73   LegendMM LegendMM LegendMM 100.83     LegendNANA
06:00 1.6 -2.4 75   LegendMM LegendMM LegendMM 100.81     LegendNANA
07:00 1.4 -2.5 75   LegendMM LegendMM LegendMM 100.77     LegendNANA
08:00 1.1 -2.1 79   LegendMM LegendMM LegendMM 100.72     LegendNANA
09:00 1.3 -2.2 77   LegendMM LegendMM LegendMM 100.58     LegendNANA
10:00 1.9 -2.0 75   LegendMM LegendMM LegendMM 100.59     LegendNANA
11:00 2.2 -2.2 73   LegendMM LegendMM LegendMM 100.51     LegendNANA
12:00 2.2 -2.0 74   LegendMM LegendMM LegendMM 100.33     LegendNANA
13:00 1.9 -1.3 79   LegendMM LegendMM LegendMM 100.23     LegendNANA
14:00 2.2 -0.6 82   LegendMM LegendMM LegendMM 100.07     LegendNANA
15:00 2.7 -0.2 81   LegendMM LegendMM LegendMM 100.04     LegendNANA
16:00 2.8 0.7 86   LegendMM LegendMM LegendMM 99.92     LegendNANA
17:00 3.2 1.7 90   LegendMM LegendMM LegendMM 99.89     LegendNANA
18:00 3.1 2.7 97   LegendMM LegendMM LegendMM 99.80     LegendNANA
19:00 LegendMM LegendMM LegendMM   LegendMM LegendMM LegendMM LegendMM     LegendNANA
20:00 3.8 3.5 98   LegendMM LegendMM LegendMM 99.72     LegendNANA
21:00 4.1 4.0 99   LegendMM LegendMM LegendMM 99.67     LegendNANA
22:00 5.3 5.3 100   LegendMM LegendMM LegendMM 99.57     LegendNANA
23:00 5.6 5.5 99   LegendMM LegendMM LegendMM 99.58     LegendNANA

Notes on Data Quality.

Legend

  • E = Estimated
  • M = Missing
  • NA = Not Available*
  • [empty] = Indicates an unobserved value
Date modified: